This is the latest recevied weather packets stored in our database for station/object PU5BHV. If no packets are shown the sender has not sent any weather packets the latest 10 day(s).
| Time | Temp. | Humidity | Pressure | Rain* | Wind** | Luminosity | Snow |
|---|---|---|---|---|---|---|---|
| 1788590638 | 14.44° C | 97% | 1015.7 hPa | 0 mm | - | 0 W/m² | - |
| 1788590337 | 14.44° C | 97% | 1015.6 hPa | 0 mm | - | 0 W/m² | - |
| 1788590032 | 14.44° C | 97% | 1015.8 hPa | 0 mm | - | 0 W/m² | - |
| 1788589729 | 14.44° C | 97% | 1015.8 hPa | 0 mm | - | 0 W/m² | - |
| 1788589428 | 14.44° C | 97% | 1015.6 hPa | 0 mm | - | 0 W/m² | - |
| 1788589123 | 14.44° C | 96% | 1015.9 hPa | 0 mm | - | 0 W/m² | - |
| 1788588823 | 14.44° C | 96% | 1015.7 hPa | 0 mm | - | 0 W/m² | - |
| 1788588518 | 14.44° C | 95% | 1015.8 hPa | 0 mm | - | 0 W/m² | - |
| 1788587005 | 14.44° C | 95% | 1016.1 hPa | 0 mm | - | 0 W/m² | - |
| 1788584887 | 14.44° C | 92% | 1016.5 hPa | 0 mm | - | 0 W/m² | - |
| 1788561511 | 17.22° C | 91% | 1015.3 hPa | 0 mm | - | 0 W/m² | - |
| 1788559996 | 17.22° C | 90% | 1015.3 hPa | 0 mm | - | 0 W/m² | - |
| 1788556968 | 17.78° C | 91% | 1014.8 hPa | 0 mm | - | 0 W/m² | - |
| 1788555438 | 17.78° C | 92% | 1014.9 hPa | 0 mm | - | 0 W/m² | - |
| 1788553310 | 18.33° C | 92% | 1014.2 hPa | 0 mm | - | 2 W/m² | - |
| 1788553004 | 18.33° C | 91% | 1014.1 hPa | 0 mm | - | 1 W/m² | - |
| 1788552699 | 18.89° C | 91% | 1014.1 hPa | 0 mm | - | 2 W/m² | - |
| 1788552398 | 18.89° C | 90% | 1014 hPa | 0 mm | - | 3 W/m² | - |
| 1788551792 | 18.89° C | 91% | 1013.8 hPa | 0 mm | - | 6 W/m² | - |
| 1788550278 | 19.44° C | 92% | 1013.6 hPa | 0 mm | - | 22 W/m² | - |
| 1788549977 | 19.44° C | 92% | 1013.1 hPa | 0 mm | - | 21 W/m² | - |
| 1788549673 | 19.44° C | 93% | 1013.5 hPa | 0 mm | - | 18 W/m² | - |
| 1788549370 | 19.44° C | 94% | 1013.6 hPa | 0 mm | - | 14 W/m² | - |
| 1788549066 | 19.44° C | 93% | 1013.6 hPa | 0 mm | - | 20 W/m² | - |
| 1788548761 | 19.44° C | 93% | 1013.2 hPa | 0 mm | - | 24 W/m² | - |
* Rain latest hour (hover to see other rain measurements)
** Current wind speed in m/s (hover to see current wind gust speed)